Find Starlink 34854

NORAD ID: 65337 Int'l Des: 2025-189 Owner: SPXS Country: US Constellation: starlink operational
LEOCIRCULAR

Current View

Loading 3D Globe...

About Starlink 34854

Starlink 34854 (NORAD 65337) is a starlink constellation satellite (v2 mini) launched Aug 27, 2025 by SPXS of US. It operates in LEO, CIRCULAR orbit with a mass of 575.00 kg.

Upcoming Passes

Passes for default location (London). Set your location on the main map for personalized predictions.

Altitude History

Loading altitude history...

Two-Line Element Set

1 65337U 25189Q 26230.23469900 .00022264 00000-0 72646-3 0 9999
2 65337 53.1591 175.4188 0001382 89.9533 270.1626 15.31726632 55791
Epoch: Aug 18, 2026 • Age: 12 hours

Current Status

Altitude 489.9 km
Apogee / Perigee N/A
Velocity 7.62 km/s
Sub-Earth Point -52.97°S, 159.22°W
Launch Date Aug 27, 2025
Age 0.9 years
Type internet

Technical Details

Classification Payload
Mass 575.00 kg
Dry Mass 530.00 kg
Total Mass 575.00 kg
Length 0.30 m
Diameter 4.10 m
Span 29.00 m
Shape Box + pan
Manufacturer SPXS
Bus Type Starlink V2MO
Phase Status In Orbit
Owner/State SPXS/US

Most Searched